Location: Ajisawe
(8.4333°N, 4.3833°E)
Time: 21:44:03
(UTC+00:00)

Vanguard 2 Rocket - Pass Details

Date: 27 April 2021
Orbit: 554 x 3326 km, 32.9° (Epoch: 16 May)

Event Time Altitude Azimuth Distance (km) Brightness Sun altitude
Rises 07:29:31 0° 224° (SW) 3,552 9.5 28.4°
Reaches altitude 10° 07:31:39 10° 219° (SW) 2,840 9.1 29.0°
Maximum altitude 07:38:36 60° 140° (SE) 1,674 9.0 30.6°
Drops below altitude 10° 07:51:08 10° 64° (ENE) 4,949 12.0 33.7°
Sets 07:56:04 0° 61° (ENE) 6,379 12.1 34.9°
